DECAYED

CZ-4B DEB, 56086 (Decayed)

Orbit data source: Space-Track

CZ-4B DEB, 56086 was space debris in SSO originally from a launch on Wed, 24 Oct 2018 UTC launched from the Taiyaun Space Center, China (TSC). Debris objects in space refer to the collection of defunct objects orbiting the Earth. Examples of debris include non-operational satellites, rocket bodies, and fragments generated from explosions, collisions, or faulty payload assembly.

Loading next visibility...
Identifier
56086, 2018-081G
Orbit
Decayed
Country
Flag of CNCN / PRC
Related business
Manufacturer
Unknown
Mission
Decayed spacecraft
Bus & Motor
Unknown
Mass
Unknown
Launch date (UTC)
2018-10-24 (8 years ago)
Launch vehicle
Unknown
Launch site
Taiyaun Space Center, China (TSC)
Object type
Payload
Rocket body
Debris
Shape & HBR
Unknown shape, 0.1 m
Radar Cross Section
Small (<0.1 m²)

Expand to show TLE details & history
Last TLE update: 1 year ago

TLE from 1 year ago
0 CZ-4B DEB
1 56086U 18081G   25005.17745783  .11139710  43404+0  72806-1 0  9998
2 56086  99.3608 256.2788 0008302 145.7303 214.4499 15.88015211 34266
Epoch: 2025-01-05T04:15Z
TLE epoch observation values (Epoch: 2025-01-05T04:15:32.356Z)
Latitude
-0.00008°
Longitude
87.37693°
Altitude
315.545 km
Speed
7.716 km/s
True Right ascension
17h 05m 06s
True Declination
0° 00' 00"
Sunlit
Object was in daylight at epoch
Visualization orbit readout
Latitude
Unknown
Longitude
Unknown
Altitude
Unknown
Speed
Unknown
Apparent Right ascension
Unknown
Apparent Declination
Unknown
Sunlit
N/A
Visualization observer readout
Local Sidereal Time
21:37:26
Azimuth
Unknown
Elevation
Unknown
Doppler factor
Unknown
Orbital elements
Apogee altitude
310.369 km
Perigee altitude
299.273 km
Semi-major axis
6,682.958 km
Eccentricity
0.00083
Inclination
99.3608°
RAAN
256.2788°
Arg. of periapsis
145.7303°
True anomaly
214.39613°
Mean anomaly
214.4499°
Eccentric anomaly
214.42301°
Mean motion
3.97274 °/min
Orbital period
90.62 mins
BSTAR
0.072806
Loading maneuver chart data...
Computing Atmospheric mass density...
Loading historical data...
Loading historical data...
Loading historical data...
Loading historical data...
Loading historical data...
Loading historical data...
Loading historical data...

Documentation

Showing up to 5 results
|